Weather Service Report


311 
ASUS45 KABQ 290401
RWRNM 
NEW MEXICO REGIONAL WEATHER ROUNDUP
NATIONAL WEATHER SERVICE ALBUQUERQUE NM
1000 PM MDT WED SEP 28 2016

NOTE: "FAIR" MEANS FEW OR NO CLOUDS BELOW 12,000 FEET AGL WITH NO
       SIGNIFICANT WEATHER OR OBSTRUCTIONS TO VISION.

      THIS PRODUCT IS RELEASED AS TWO VERSIONS.  ONE VERSION NEAR
      THE TOP OF THE HOUR CONTAINING PRELIMINARY DATA FROM ALBUQUERQUE
      AND OTHER STATIONS.  A FINAL VERSION WITH ADDITIONAL DATA IS 
      ISSUED ABOUT 10 MINUTES AFTER THE HOUR.
 
NMZ501-503-504-510>518-290500-
NORTHWEST PLATEAU/NORTHCENTRAL MOUNTAINS
  
CITY           SKY/WX    TMP DP  RH WIND       PRES   REMARKS
FARMINGTON     FAIR      64  50  60 N7        30.27S                  
LOS ALAMOS     FAIR      67  24  19 SE12G17   30.45S                  
SANTA FE       FAIR      66  27  23 E12       30.39R                  
TAOS           FAIR      61  25  25 SE16      30.45S                  

$$
NMZ402-403-502-505>509-290500-
WESTCENTRAL MOUNTAINS/SOUTHWEST MOUNTAINS
  
CITY           SKY/WX    TMP DP  RH WIND       PRES   REMARKS
GALLUP         LGT RAIN  57  52  83 CALM      30.37F                  
SILVER CITY    FAIR      60  48  63 CALM      30.30R                  

$$
NMZ407-409-411-412-290500-
SOUTHERN DESERTS
  
CITY           SKY/WX    TMP DP  RH WIND       PRES   REMARKS
DEMING         FAIR      70  51  51 CALM      30.22R                  
LAS CRUCES     FAIR      70  54  56 CALM      30.24R                  
HOLLOMAN AFB   MOCLDY    73  53  48 SE2       30.21R                  
ALAMOGORDO     FAIR      70  50  49 NW3       30.23R                  
T OR C         FAIR      73  50  44 S3        30.25R                  

$$
NMZ519>523-290500-
CENTRAL VALLEYS/CENTRAL HIGHLANDS
  
CITY           SKY/WX    TMP DP  RH WIND       PRES   REMARKS
ALBUQUERQUE    FAIR      73  30  20 SE13      30.31R                  
DOUBLE EAGLE   PTCLDY    63  43  48 VRB5      30.35R                  
CLINES CORNERS FAIR      58  32  37 SE9       30.46R                  
BELEN          FAIR      73  31  21 SE8       30.30R                  
SOCORRO        FAIR      71  45  39 SE6       30.27R                  

$$
NMZ524>526-539-540-290500-
SOUTHCENTRAL MOUNTAINS
  
CITY           SKY/WX    TMP DP  RH WIND       PRES   REMARKS
RUIDOSO        FAIR      59  39  47 S3        30.45R                  

$$
NMZ527>531-290500-
NORTHEAST HIGHLANDS/NORTHEAST PLAINS
  
CITY           SKY/WX    TMP DP  RH WIND       PRES   REMARKS
LAS VEGAS      FAIR      61  27  27 SE12      30.46R                  
RATON          FAIR      55  31  39 N8        30.43R                  
CLAYTON        FAIR      56  39  53 N6        30.36R                  

$$
NMZ532>537-290500-
EASTCENTRAL PLAINS
  
CITY           SKY/WX    TMP DP  RH WIND       PRES   REMARKS
TUCUMCARI      FAIR      63  34  33 NE3       30.28R                  
CANNON AFB     NOT AVBL                                               
CLOVIS AIRPORT FAIR      61  45  55 CALM      30.30R                  

$$
NMZ028-029-538-290500-
SOUTHEAST PLAINS
  
CITY           SKY/WX    TMP DP  RH WIND       PRES   REMARKS
ROSWELL        FAIR      64  49  57 E3        30.24R                  
ARTESIA        FAIR      64  55  72 CALM      30.24R                  
CARLSBAD       FAIR      64  58  80 W6        30.21R                  
HOBBS          FAIR      63  48  59 CALM      30.26S                  


$$
  

Return to Home page


Western Regional Climate Center, wrcc@dri.edu